Overview Statistics Trail Chart Weather Telemetry Raw packets
 

This is the latest recevied weather packets stored in our database for station/object AA6HF. If no packets are shown the sender has not sent any weather packets the latest 10 day(s).

<< 110 111 112 113 114 115 >>
Time Temp. Humidity Pressure Rain* Wind** Luminosity Snow
1787845429 37.78° C 32% 1008.5 hPa 0 mm - - -
1787845129 36.11° C 35% 1008.5 hPa 0 mm - - -
1787844829 36.11° C 36% 1008.6 hPa 0 mm - - -
1787844529 35.56° C 36% 1008.7 hPa 0 mm - - -
1787844229 35° C 36% 1008.7 hPa 0 mm - - -
1787843929 34.44° C 37% 1008.5 hPa 0 mm - - -
1787843629 33.89° C 36% 1008.6 hPa 0 mm - - -
1787843329 33.33° C 37% 1008.7 hPa 0 mm - - -
1787843029 32.78° C 36% 1008.7 hPa 0 mm - - -
1787842729 32.78° C 38% 1008.7 hPa 0 mm - - -
1787842429 32.22° C 39% 1008.6 hPa 0 mm - - -
1787842129 31.67° C 41% 1008.5 hPa 0 mm - - -
1787841829 31.67° C 40% 1008.4 hPa 0 mm - - -
1787841529 31.67° C 41% 1008.2 hPa 0 mm - - -
1787841229 31.67° C 37% 1008.2 hPa 0 mm - - -
1787840929 31.67° C 36% 1008.2 hPa 0 mm - - -
1787840629 31.67° C 38% 1008.1 hPa 0 mm - - -
1787840329 31.11° C 38% 1008.1 hPa 0 mm - - -
1787840029 31.11° C 39% 1007.9 hPa 0 mm - - -
1787839729 30.56° C 40% 1007.8 hPa 0 mm - - -
1787839429 30.56° C 40% 1007.8 hPa 0 mm - - -
1787839129 30.56° C 40% 1007.7 hPa 0 mm - - -
1787838829 30.56° C 41% 1007.6 hPa 0 mm - - -
1787838529 30.56° C 40% 1007.6 hPa 0 mm - - -
1787838229 30° C 41% 1007.4 hPa 0 mm - - -

* Rain latest hour (hover to see other rain measurements)
** Current wind speed in m/s (hover to see current wind gust speed)